Regional Weather Roundup
Issued by NWS

Home | Current Version | Previous Version | Text Only | Print | Product List | Glossary On
Versions: 1 2 3 4 5 6 7 8 9 10 11 12 13 14 15 16 17 18 19 20 21 22 23 24 25 26 27
000
ASUS44 KLIX 011012
RWRLA
LOUISIANA WEATHER ROUNDUP
NATIONAL WEATHER SERVICE NEW ORLEANS LA
500 AM CDT SUN MAY 01 2016

NOTE: "FAIR" INDICATES FEW OR NO CLOUDS BELOW 12,000 FEET WITH NO
      SIGNIFICANT WEATHER AND/OR OBSTRUCTIONS TO VISIBILITY.
      SKY/WX - SKY CONDITION AND SIGNIFICANT WEATHER.
      TMP - AIR TEMPERATURE.    DP   - DEWPOINT TEMPERATURE.
      RH  - RELATIVE HUMIDITY.  PRES - PRESSURE.
      HX  - HEAT INDEX.         WCI  - WIND CHILL INDEX.

*  THESE STATIONS ARE NOT NWS OR FAA STATIONS AND ARE NOT UNDER
   NWS QUALITY CONTROL.

LAZ040-048-061>063-065-066-069-011100-
SOUTHEAST LOUISIANA

CITY           SKY/WX    TMP DP  RH WIND       PRES   REMARKS
N.O. AUDUBON   NOT AVBL
N.O. INTL ARPT CLOUDY    73  70  90 SE3       29.86S
N.O. LAKEFRONT CLOUDY    71  71 100 SE7       29.87S FOG
N.O. DOWNTOWN* CLOUDY    74  72  93 S6        29.88R
RESERVE*       CLOUDY    72  70  92 E3        29.86S
SLIDELL        CLOUDY    69  69 100 CALM      29.87S
BATON ROUGE    CLOUDY    69  66  90 E7        29.83F THUNDER
BOOTHVILLE     CLOUDY    75  74  96 SE9       29.88R FOG
BELLE CHASSE   CLOUDY    75  73  93 S9        29.86R
BOGALUSA*      CLOUDY    66  63  90 CALM      29.90S
GALLIANO*      CLOUDY    73  71  93 SE7       29.86R FOG
NEW ROADS*     PTSUNNY   69  67  93 E5        29.84F
GONZALES*      CLOUDY    70  70 100 CALM      29.84F
HAMMOND*       CLOUDY    68  64  88 CALM      29.87S
HOUMA*         CLOUDY    75  74  96 SE7       29.85S FOG
PORT FOURCHON* SUNNY     77  73  88 SE13G18   29.86R FOG

$$

LAZ041-044-053-054-011100-
SOUTHWEST LOUISIANA

CITY           SKY/WX    TMP DP  RH WIND       PRES   REMARKS
LAKE CHARLES   CLOUDY    76  75  97 SE12      29.76F THUNDER
LAFAYETTE      CLOUDY    75  73  93 VRB6      29.79F THUNDER
PATTERSON      NOT AVBL
SALT POINT       N/A    N/A N/A N/A SE10      29.81F
NEW IBERIA     CLOUDY    76  73  91 S13       29.80F THUNDER
CHENAULT AIRPK TSTM      76  74  95 SE13      29.78S

$$

LAZ027-028-011100-
CENTRAL LOUISIANA

CITY           SKY/WX    TMP DP  RH WIND       PRES   REMARKS
FORT POLK      CLOUDY    73  73 100 E3        29.80F
ALEXANDRIA INT LGT RAIN  74  72  93 E7        29.80F
ALEXANDRIA     CLOUDY    74  71  91 SE5       29.83S

$$

LAZ001-002-011100-
NORTHWEST LOUISIANA

CITY           SKY/WX    TMP DP  RH WIND       PRES   REMARKS
SHREVEPORT     PTCLDY    69  64  84 N6        29.84F
BARKSDALE AFB  CLEAR     67  64  90 N6        29.84F
DTN SHREVEPORT CLEAR     69  63  81 NW5       29.85S

$$

LAZ014-016-011100-
NORTHEAST LOUISIANA

CITY           SKY/WX    TMP DP  RH WIND       PRES   REMARKS
MONROE         CLOUDY    71  69  93 CALM      29.85F
TALLULAH       CLOUDY    71  66  84 SE9       29.87S

$$





USA.gov is the U.S. government's official web portal to all federal, state and local government web resources and services.